TimeCDT,TemperatureF,Dew PointF,Humidity,Sea Level PressureIn,VisibilityMPH,Wind Direction,Wind SpeedMPH,Gust SpeedMPH,PrecipitationIn,Events,Conditions,WindDirDegrees,DateUTC
12:53 AM,57.9,53.1,84,30.27,10.0,NE,5.8,-,N/A,,Mostly Cloudy,40,2013-09-17 05:53:00
1:53 AM,57.0,52.0,83,30.27,9.0,NE,5.8,-,N/A,,Partly Cloudy,40,2013-09-17 06:53:00
2:53 AM,55.0,52.0,89,30.26,8.0,NE,5.8,-,N/A,,Clear,40,2013-09-17 07:53:00
3:53 AM,55.0,52.0,89,30.26,8.0,NE,5.8,-,N/A,,Clear,40,2013-09-17 08:53:00
4:53 AM,54.0,51.1,90,30.25,8.0,NE,6.9,-,N/A,,Clear,50,2013-09-17 09:53:00
5:53 AM,54.0,51.1,90,30.26,7.0,NE,4.6,-,N/A,,Clear,40,2013-09-17 10:53:00
6:53 AM,54.0,51.1,90,30.27,5.0,NE,4.6,-,N/A,,Clear,50,2013-09-17 11:53:00
7:53 AM,57.0,53.1,87,30.27,5.0,ENE,6.9,-,N/A,,Clear,70,2013-09-17 12:53:00
8:53 AM,63.0,54.0,72,30.27,6.0,East,8.1,-,N/A,,Haze,80,2013-09-17 13:53:00
9:53 AM,66.0,54.0,65,30.28,7.0,ESE,6.9,-,N/A,,Clear,110,2013-09-17 14:53:00
10:53 AM,70.0,55.0,59,30.26,8.0,ESE,10.4,-,N/A,,Clear,120,2013-09-17 15:53:00
11:53 AM,72.0,55.0,55,30.25,8.0,ESE,5.8,-,N/A,,Clear,110,2013-09-17 16:53:00
12:53 PM,73.9,54.0,50,30.22,9.0,Calm,Calm,-,N/A,,Clear,0,2013-09-17 17:53:00
1:53 PM,75.0,54.0,48,30.19,8.0,ESE,5.8,-,N/A,,Clear,120,2013-09-17 18:53:00
2:53 PM,75.0,54.0,48,30.17,8.0,East,8.1,-,N/A,,Clear,100,2013-09-17 19:53:00
3:53 PM,75.0,55.0,50,30.15,8.0,East,6.9,-,N/A,,Partly Cloudy,80,2013-09-17 20:53:00
4:53 PM,75.9,54.0,46,30.15,8.0,ESE,8.1,-,N/A,,Partly Cloudy,110,2013-09-17 21:53:00
5:53 PM,73.0,55.9,55,30.14,6.0,East,6.9,-,N/A,,Haze,100,2013-09-17 22:53:00
6:13 PM,71.6,57.2,60,30.15,2.0,East,5.8,-,N/A,,Haze,100,2013-09-17 23:13:00
6:37 PM,69.8,55.4,60,30.14,4.0,East,4.6,-,N/A,,Haze,100,2013-09-17 23:37:00
6:53 PM,70.0,55.9,61,30.14,4.0,East,4.6,-,N/A,,Haze,90,2013-09-17 23:53:00
7:53 PM,64.9,57.0,75,30.14,7.0,ENE,5.8,-,N/A,,Mostly Cloudy,60,2013-09-18 00:53:00
8:53 PM,64.0,55.9,75,30.13,7.0,East,5.8,-,N/A,,Partly Cloudy,90,2013-09-18 01:53:00
9:53 PM,63.0,55.9,78,30.14,7.0,East,5.8,-,N/A,,Clear,80,2013-09-18 02:53:00
10:53 PM,63.0,55.0,75,30.13,8.0,East,6.9,-,N/A,,Clear,90,2013-09-18 03:53:00
11:53 PM,64.0,55.0,73,30.12,8.0,East,3.5,-,N/A,,Clear,80,2013-09-18 04:53:00